Location: Christchurch
(43.5330°S, 172.6330°E)
Time: 17:26:48
(UTC+13:00)

Cosmos 1707 Rocket - Pass Details

Date: 24 January 2019
Orbit: 604 x 632 km, 82.5° (Epoch: 16 February)

Event Time Altitude Azimuth Distance (km) Brightness Sun altitude
Exits shadow 22:55:33 32° 33° (NNE) 1,066 4.2 -16.6°
Maximum altitude 22:57:11 48° 87° (E) 804 3.8 -16.8°
Drops below altitude 10° 23:01:25 10° 161° (SSE) 1,994 6.6 -17.3°
Sets 23:03:43 0° 166° (SSE) 2,909 7.5 -17.6°
